カタログに戻る

STARLINK-32524

運用中通信VLEO
NORAD 62159·PAYLOAD·🇺🇸 United States

打ち上げ Nov 30, 2024 から Cape Canaveral Space Force Station

Loading…

次のパス (今後24時間)

TLE

最新Source: CelesTrak SupGP

元期: Sep 14, 2026, 22:21 UTC

1 62159C 24224W   26257.93173611 -.00022525  00000+0 -81587-3 0  2576
2 62159  43.0017 172.8361 0001286 262.8238  39.8405 15.27589745    19

AllMySatでSTARLINK-32524をリアルタイム追跡

Download on the App Store